Santa Barbara, CA

6:20 AM PDT on June 18, 2018 (GMT -0700)
Santa Barbara Municipal

Weather History for KSBA - August, 2001

Change the Weather History Date:

Thursday, August 16, 2001

  Actual Average Record
Temperature  
Mean Temperature 64 °F 66 °F  
Max Temperature 70 °F 74 °F 84 °F (1962)
Min Temperature 57 °F 58 °F 50 °F (1986)
Degree Days  
Heating Degree Days 2 1  
Month to date heating degree days 16  
Since 1 June heating degree days 133  
Since 1 July heating degree days 43  
Cooling Degree Days 0 2  
Month to date cooling degree days 32  
Year to date cooling degree days 104  
Since 1 June cooling degree days 90  
Growing Degree Days 14 (Base 50)    
Moisture  
Dew Point 56 °F    
Average Humidity 86    
Maximum Humidity 100    
Minimum Humidity 61    
Precipitation  
Precipitation 0.00 in 0.00 in 0.00 in (2018)
Month to date precipitation 0.05  
Year to date precipitation 12.13  
Sea Level Pressure  
Sea Level Pressure 29.93 in    
Wind  
Wind Speed 7 mph (SE)    
Max Wind Speed 13 mph    
Max Gust Speed -    
Visibility 7 miles    
Events      
T = Trace of Precipitation, MM = Missing Value Source: NWS Daily Summary

Daily Weather History Graph

Daily Weather History Graph

Search for Another Location

Airport or City:

Astronomy

Aug. 16, 2001 Rise Set
Actual Time 6:21 AM PDT 7:45 PM PDT
Civil Twilight 5:54 AM PDT 8:11 PM PDT
Nautical Twilight 5:22 AM PDT 8:43 PM PDT
Astronomical Twilight 4:49 AM PDT 9:16 PM PDT
Moon 3:20 AM PDT (8/16) 6:12 PM PDT (8/16)
Length of Visible Light 14h 17m
Length of Day
13h 24m
Waning Crescent, 8% of the Moon is Illuminated
Aug 16
Waning Crescent
Aug 18
New
Aug 25
First Quarter
Sep 2
Full
Sep 10
Last Quarter

Hourly Weather History & Observations

Time (PDT) Temp. Dew Point Humidity Pressure Visibility Wind Dir Wind Speed Gust Speed Precip Events Conditions
12:53 AM 57.9 °F 55.9 °F 93% 29.91 in 7.0 mi East 6.9 mph - N/A   Clear
1:04 AM 57.2 °F 57.2 °F 100% 29.90 in 7.0 mi East 8.1 mph - N/A   Scattered Clouds
1:13 AM 59.0 °F 57.2 °F 94% 29.90 in 6.0 mi East 9.2 mph - N/A   Mostly Cloudy
1:41 AM 59.0 °F 57.2 °F 94% 29.90 in 6.0 mi East 8.1 mph - N/A   Overcast
1:53 AM 57.9 °F 57.0 °F 97% 29.90 in 5.0 mi East 9.2 mph - N/A   Overcast
2:53 AM 57.9 °F 57.0 °F 97% 29.90 in 4.0 mi ESE 6.9 mph - N/A   Overcast
3:53 AM 57.9 °F 57.0 °F 97% 29.91 in 4.0 mi East 6.9 mph - N/A   Overcast
4:53 AM 57.0 °F 57.0 °F 100% 29.91 in 4.0 mi East 6.9 mph - N/A   Overcast
5:53 AM 57.0 °F 55.9 °F 96% 29.91 in 1.5 mi East 5.8 mph - N/A   Overcast
6:00 AM 57.2 °F 55.4 °F 94% 29.92 in 1.5 mi ENE 4.6 mph - N/A   Overcast
6:53 AM 57.0 °F 55.9 °F 96% 29.93 in 1.0 mi East 5.8 mph - N/A   Overcast
7:53 AM 57.9 °F 57.0 °F 97% 29.95 in 1.0 mi Calm Calm - N/A   Overcast
8:53 AM 60.1 °F 57.0 °F 90% 29.95 in 3.0 mi NE 3.5 mph - N/A   Mostly Cloudy
9:04 AM 60.8 °F 55.4 °F 82% 29.95 in 5.0 mi Calm Calm - N/A   Haze
9:09 AM 60.8 °F 55.4 °F 82% 29.95 in 6.0 mi Calm Calm - N/A   Haze
9:42 AM 60.8 °F 55.4 °F 82% 29.97 in 6.0 mi SW 6.9 mph - N/A   Mostly Cloudy
9:53 AM 60.1 °F 55.9 °F 86% 29.98 in 6.0 mi SSW 5.8 mph - N/A   Mostly Cloudy
10:53 AM 61.0 °F 57.0 °F 87% 29.99 in 6.0 mi SW 6.9 mph - N/A   Mostly Cloudy
11:21 AM 62.6 °F 57.2 °F 82% 29.99 in 9.0 mi SSW 5.8 mph - N/A   Scattered Clouds
11:53 AM 64.0 °F 55.9 °F 75% 29.98 in 10.0 mi SSW 6.9 mph - N/A   Partly Cloudy
12:53 PM 68.0 °F 57.0 °F 68% 29.96 in 10.0 mi SSW 8.1 mph - N/A   Clear
1:53 PM 70.0 °F 57.9 °F 65% 29.95 in 10.0 mi WSW 9.2 mph - N/A   Clear
2:53 PM 69.1 °F 57.0 °F 65% 29.94 in 10.0 mi West 10.4 mph - N/A   Scattered Clouds
3:53 PM 69.1 °F 55.0 °F 61% 29.92 in 10.0 mi SW 12.7 mph - N/A   Partly Cloudy
4:53 PM 68.0 °F 55.9 °F 65% 29.92 in 10.0 mi SW 10.4 mph - N/A   Partly Cloudy
5:53 PM 66.0 °F 57.0 °F 73% 29.91 in 10.0 mi SW 10.4 mph - N/A   Partly Cloudy
6:53 PM 64.4 °F 57.2 °F 77% 29.90 in 10.0 mi WSW 3.5 mph - N/A   Mostly Cloudy
7:53 PM 60.8 °F 55.4 °F 82% 29.90 in 10.0 mi South 3.5 mph - N/A   Partly Cloudy
8:53 PM 59.0 °F 55.9 °F 90% 29.91 in 10.0 mi Calm Calm - N/A   Clear
9:53 PM 57.9 °F 55.9 °F 93% 29.92 in 10.0 mi East 5.8 mph - N/A   Clear
10:53 PM 57.9 °F 55.9 °F 93% 29.92 in 10.0 mi ENE 4.6 mph - N/A   Clear
11:53 PM 57.0 °F 55.9 °F 96% 29.92 in 10.0 mi NE 4.6 mph - N/A   Clear